Stations météo

réclame
Mon MeteoGroup
Menorca/Mahon, Espagne (8314): Température de l'air & dewpoint: 14.07.2018 04:00:00 - 20.07.2018 04:00:00 (CEST)Menorca/Mahon, Espagne (8314): Vitesse du vent: 14.07.2018 04:00:00 - 20.07.2018 04:00:00 (CEST)Menorca/Mahon, Espagne (8314): Direction du vent: 14.07.2018 04:00:00 - 20.07.2018 04:00:00 (CEST)Menorca/Mahon, Espagne (8314): reduced air pressure: 14.07.2018 04:00:00 - 20.07.2018 04:00:00 (CEST)Menorca/Mahon, Espagne (8314): visibility: 14.07.2018 04:00:00 - 20.07.2018 04:00:00 (CEST)
Date & Time tt [°C] td [°C] ff [km/h] ff [knt] dd ppp [hPa] vv [km]
20.07.2018 04:00:00 22,2 20,1 4 2 S 1014,3 -
20.07.2018 03:00:00 22,5 20,2 8 4 S 1014,7 -
20.07.2018 02:00:00 23,2 20,0 5 3 S 1014,9 -
20.07.2018 01:00:00 23,5 20,0 8 4 S 1015,3 -
20.07.2018 00:00:00 22,2 17,8 5 3 S 1015,2 -
19.07.2018 23:00:00 23,4 18,7 5 3 S 1015,0 25
19.07.2018 22:00:00 24,4 18,8 8 4 S 1014,7 -
19.07.2018 21:00:00 26,7 19,1 5 3 S 1014,2 -
19.07.2018 20:00:00 28,8 16,9 11 6 SSW 1014,3 25
19.07.2018 19:00:00 29,9 17,4 9 5 SSW 1013,9 -
19.07.2018 18:00:00 30,4 16,1 11 6 SSW 1014,7 -
19.07.2018 17:00:00 30,5 13,8 13 7 SW 1015,1 27
19.07.2018 16:00:00 30,2 15,9 16 9 SW 1015,4 -
19.07.2018 15:00:00 31,0 13,7 11 6 SSW 1015,7 30
19.07.2018 14:00:00 31,3 15,6 15 8 S 1015,9 30
19.07.2018 13:00:00 30,3 16,3 11 6 SSW 1015,9 -
19.07.2018 12:00:00 29,7 18,8 13 7 SSW 1016,1 -
19.07.2018 11:00:00 29,5 18,3 8 4 SW 1015,9 30
19.07.2018 10:00:00 28,7 17,6 5 3 SSW 1016,0 -
19.07.2018 09:00:00 27,3 18,6 2 1 SW 1015,5 30
19.07.2018 08:00:00 24,8 20,1 2 1 S 1015,0 30
19.07.2018 07:00:00 19,0 16,7 0 0 N 1014,6 -
19.07.2018 06:00:00 18,4 16,6 0 0 N 1014,3 -
19.07.2018 05:00:00 19,2 17,3 0 0 N 1014,3 -
19.07.2018 04:00:00 21,5 18,9 8 4 NE 1014,3 -
19.07.2018 03:00:00 22,1 18,9 9 5 NE 1014,8 -
19.07.2018 02:00:00 20,2 16,6 8 4 NNE 1015,2 -
19.07.2018 01:00:00 22,0 17,8 8 4 ENE 1015,6 -
19.07.2018 00:00:00 20,9 16,9 4 2 N 1015,6 -
18.07.2018 23:00:00 22,4 17,1 2 1 NNW 1015,5 23
18.07.2018 22:00:00 23,6 17,8 0 0 N 1014,5 -
18.07.2018 21:00:00 25,6 17,8 4 2 SSE 1013,8 -
18.07.2018 20:00:00 27,7 16,9 8 4 SE 1014,1 23
18.07.2018 19:00:00 28,7 16,9 15 8 SE 1014,0 -
18.07.2018 18:00:00 29,7 16,4 16 9 ESE 1014,1 -
18.07.2018 17:00:00 30,6 16,7 13 7 ESE 1015,2 23
18.07.2018 16:00:00 31,0 16,7 18 10 ESE 1015,2 -
18.07.2018 15:00:00 31,1 16,1 18 10 E 1015,4 25
18.07.2018 14:00:00 31,1 15,4 21 11 ESE 1015,4 25
18.07.2018 13:00:00 30,3 16,6 22 12 E 1015,5 -
18.07.2018 12:00:00 30,1 16,5 18 10 E 1016,0 -
18.07.2018 11:00:00 29,4 17,7 16 9 E 1016,0 25
18.07.2018 10:00:00 28,7 17,3 15 8 E 1015,9 -
18.07.2018 09:00:00 27,4 18,7 9 5 E 1016,0 25
18.07.2018 08:00:00 25,1 20,1 2 1 SE 1016,1 25
18.07.2018 07:00:00 19,9 17,3 2 1 E 1016,0 -
18.07.2018 06:00:00 18,6 16,9 4 2 ESE 1015,8 -
18.07.2018 05:00:00 18,7 16,5 0 0 N 1015,8 -
18.07.2018 04:00:00 19,4 17,2 2 1 SSE 1016,3 -
18.07.2018 03:00:00 19,5 16,5 4 2 S 1016,6 -
18.07.2018 02:00:00 19,9 16,1 4 2 SSW 1016,8 -
18.07.2018 01:00:00 21,1 17,1 4 2 S 1016,8 -
18.07.2018 00:00:00 22,2 18,1 4 2 S 1017,2 -
17.07.2018 23:00:00 23,2 18,1 4 2 S 1017,4 15
17.07.2018 22:00:00 23,6 18,3 8 4 S 1017,3 -
17.07.2018 21:00:00 25,5 18,4 9 5 S 1016,8 -
17.07.2018 20:00:00 27,8 18,6 11 6 S 1016,5 20
17.07.2018 19:00:00 29,2 18,3 15 8 S 1016,3 -
17.07.2018 18:00:00 30,3 17,4 11 6 E 1016,6 -
17.07.2018 17:00:00 30,9 17,0 11 6 ESE 1016,9 25
17.07.2018 16:00:00 31,1 16,3 9 5 E 1017,3 -
17.07.2018 15:00:00 30,5 16,9 15 8 S 1017,5 25
17.07.2018 14:00:00 31,2 14,8 16 9 NE 1017,5 25
17.07.2018 13:00:00 30,8 14,6 9 5 NNE 1017,9 -
17.07.2018 12:00:00 30,3 15,1 11 6 ENE 1017,9 -
17.07.2018 11:00:00 29,6 15,4 13 7 ENE 1017,9 25
17.07.2018 10:00:00 28,9 15,8 15 8 ENE 1017,8 -
17.07.2018 09:00:00 27,5 16,8 13 7 ENE 1017,5 25
17.07.2018 08:00:00 23,3 20,2 0 0 N 1017,7 22
17.07.2018 07:00:00 20,9 18,7 0 0 N 1017,5 -
17.07.2018 06:00:00 20,8 18,9 0 0 N 1016,9 -
17.07.2018 05:00:00 20,9 18,2 0 0 N 1016,9 -
17.07.2018 04:00:00 20,9 18,6 0 0 N 1016,9 -
17.07.2018 03:00:00 21,5 18,9 0 0 N 1017,2 -
17.07.2018 02:00:00 22,1 18,9 4 2 S 1017,2 -
17.07.2018 01:00:00 22,3 18,7 8 4 S 1017,1 -
17.07.2018 00:00:00 22,1 18,1 4 2 S 1016,9 -
16.07.2018 23:00:00 23,0 17,0 5 3 SSE 1016,5 25
16.07.2018 22:00:00 23,5 16,5 4 2 E 1015,7 -
16.07.2018 21:00:00 25,0 15,9 9 5 NE 1015,6 -
16.07.2018 20:00:00 26,4 15,1 15 8 N 1015,2 25
16.07.2018 19:00:00 27,3 18,0 15 8 NNE 1014,5 -
16.07.2018 18:00:00 27,1 17,8 22 12 NNE 1014,2 -
16.07.2018 17:00:00 28,5 19,2 18 10 NE 1013,9 20
16.07.2018 16:00:00 29,2 19,5 34 18 N 1012,8 -
16.07.2018 15:00:00 31,6 17,8 28 15 WNW 1012,3 20
16.07.2018 14:00:00 31,0 18,3 28 15 WNW 1012,0 20
16.07.2018 13:00:00 28,1 23,5 28 15 WSW 1011,6 -
16.07.2018 12:00:00 29,1 22,5 29 16 SW 1010,4 -
16.07.2018 11:00:00 26,9 23,2 26 14 SW 1010,2 10
16.07.2018 10:00:00 26,6 22,1 28 15 SW 1010,5 -
16.07.2018 09:00:00 25,7 22,2 26 14 SW 1010,5 14
16.07.2018 08:00:00 24,9 22,2 13 7 SW 1009,9 14
16.07.2018 07:00:00 25,1 22,4 18 10 S 1010,7 -
16.07.2018 06:00:00 25,2 22,1 26 14 SSW 1011,0 -
16.07.2018 05:00:00 25,5 22,8 24 13 SW 1012,7 -
16.07.2018 04:00:00 25,7 23,0 29 16 WSW 1012,8 -
16.07.2018 03:00:00 25,6 22,9 26 14 SSW 1012,7 -
16.07.2018 02:00:00 25,1 22,2 16 9 S 1011,9 -
16.07.2018 01:00:00 25,4 22,1 16 9 SSW 1012,8 -
16.07.2018 00:00:00 25,7 22,2 22 12 SW 1014,4 -
15.07.2018 23:00:00 25,0 21,5 4 2 SSW 1012,9 18
15.07.2018 22:00:00 25,5 21,2 9 5 SSW 1013,0 -
15.07.2018 21:00:00 26,1 22,6 15 8 S 1012,5 -
15.07.2018 20:00:00 26,9 22,1 13 7 SW 1013,5 18
15.07.2018 19:00:00 28,1 22,2 18 10 SSW 1013,9 -
15.07.2018 18:00:00 28,8 23,5 22 12 SSW 1014,0 -
15.07.2018 17:00:00 29,4 23,4 18 10 SW 1014,3 20
15.07.2018 16:00:00 30,4 23,0 15 8 SSW 1014,3 -
15.07.2018 15:00:00 30,4 21,2 15 8 SSW 1014,7 20
15.07.2018 14:00:00 30,0 21,7 16 9 SW 1015,5 20
15.07.2018 13:00:00 30,0 21,8 13 7 SW 1016,0 -
15.07.2018 12:00:00 28,7 23,4 18 10 SW 1016,4 -
15.07.2018 11:00:00 29,1 22,4 13 7 SW 1016,0 22
15.07.2018 10:00:00 28,2 22,9 8 4 WSW 1015,8 -
15.07.2018 09:00:00 27,4 22,9 4 2 SW 1015,7 20
15.07.2018 08:00:00 25,1 22,6 0 0 N 1015,6 18
15.07.2018 07:00:00 21,6 20,2 2 1 NW 1015,6 -
15.07.2018 06:00:00 21,7 20,2 4 2 W 1015,3 -
15.07.2018 05:00:00 22,6 21,1 9 5 W 1015,4 -
15.07.2018 04:00:00 22,5 21,1 11 6 WSW 1015,7 -
15.07.2018 03:00:00 22,2 21,0 4 2 SW 1015,8 -
15.07.2018 02:00:00 22,1 20,5 8 4 S 1016,1 -
15.07.2018 01:00:00 20,8 15,8 4 2 SSW 1016,3 -
15.07.2018 00:00:00 21,8 16,3 0 0 N 1016,0 -
14.07.2018 23:00:00 23,2 16,3 4 2 N 1015,8 24
14.07.2018 22:00:00 24,9 18,6 0 0 N 1015,5 -
14.07.2018 21:00:00 27,4 21,0 8 4 S 1015,0 -
14.07.2018 20:00:00 30,6 16,1 8 4 N 1014,7 24
14.07.2018 19:00:00 31,2 16,3 11 6 N 1014,7 -
14.07.2018 18:00:00 31,6 16,9 21 11 NNE 1014,7 -
14.07.2018 17:00:00 32,2 18,8 16 9 N 1014,7 24
14.07.2018 16:00:00 32,9 18,7 15 8 NNW 1014,8 -
14.07.2018 15:00:00 31,8 18,7 15 8 NNW 1014,5 25
14.07.2018 14:00:00 32,2 19,0 22 12 NNW 1014,5 25
14.07.2018 13:00:00 31,0 20,1 24 13 W 1014,1 -
14.07.2018 12:00:00 30,3 20,7 22 12 W 1014,4 -
14.07.2018 11:00:00 30,1 21,1 13 7 N 1014,1 25
14.07.2018 10:00:00 28,3 21,9 9 5 NNE 1014,2 -
14.07.2018 09:00:00 27,1 22,1 9 5 ENE 1014,1 22
14.07.2018 08:00:00 26,3 21,9 8 4 NE 1013,9 20
14.07.2018 07:00:00 24,1 21,4 9 5 ENE 1013,6 -
14.07.2018 06:00:00 24,3 20,6 15 8 ENE 1013,8 -
14.07.2018 05:00:00 24,5 20,6 18 10 NE 1014,0 -
14.07.2018 04:00:00 24,7 20,6 22 12 ENE 1014,0 -

tt = Température de l'air
td = dewpoint
ff = Vitesse du vent
dd = Direction du vent
ppp = reduced air pressure
vv = visibility

stations d'obs. à proximité